www.pogodaiklimat.ru

Погода и климат >> Архив погоды >> Украина >> Киев


АРХИВ ПОГОДЫ в Киеве

Время (UTC), дата Ветер
(напр.,м/с)
 
Видим.   Явления Облачность Т
(С)
Тd
(С)
f
(%)
Тe
(С)
Тes
(С)
Комфортность P
(гПа)
Po
(гПа)
Тmin
(С)
Tmax
(С)
R
(мм)
R24
(мм)
S
(см)
18 11.10 В 2 20 км ясно +12.9 +8.5 75 +12 +12 тепло 1030.4 1010.1 +17.9
21 11.10 В 2 20 км 8/8 840 м
[Sc]
+11.7 +8.0 78 +11 +11 тепло 1031.7 1011.3
00 12.10 ЮВ 2 20 км 10/10 840 м
[Sc]
+11.8 +7.0 72 +11 +11 тепло 1032.2 1011.8
03 12.10 В 1 20 км 10/10 870 м
[Sc]
+10.6 +7.7 82 +10 +10 тепло 1032.8 1012.3
06 12.10 ЮВ 1 20 км 3/3 600 м
[Sc]
+10.0 +7.2 83 +10 +10 тепло 1034.6 1014.0 +8.8
09 12.10 ЮВ 2 20 км ясно +15.4 +6.5 55 +15 +20 тепло 1035.2 1015.0
12 12.10 ЮВ 2 20 км ясно +18.0 +3.3 38 +19 +22 тепло 1034.2 1014.2
15 12.10 В 1 20 км ясно +16.0 +0.7 35 +17 +17 тепло 1033.8 1013.6
18 12.10 штиль 0 20 км ясно +11.0 +1.1 50 +11 +11 тепло 1034.3 1013.8 +18.8
21 12.10 Ю 1 20 км ясно +9.1 +0.6 55 +9 +9 по сезону 1035.0 1014.3
00 13.10 ЮЗ 1 20 км 3/0
[Cs]
+6.9 +1.7 69 +6 +6 по сезону 1035.2 1014.4
03 13.10 штиль 0 20 км ясно +5.5 +1.7 76 +5 +5 по сезону 1035.2 1014.3
06 13.10 штиль 0 20 км ясно +8.0 +3.5 73 +7 +8 по сезону 1035.4 1014.6 +4.8
09 13.10 Ю 2 20 км ясно +15.9 +2.8 41 +16 +21 тепло 1034.9 1014.7
12 13.10 Ю 2 20 км ясно +18.4 +2.1 34 +19 +23 тепло 1033.8 1013.8
15 13.10 штиль 0 20 км ясно +16.0 +2.0 39 +16 +16 тепло 1032.7 1012.6
18 13.10 штиль 0 20 км ясно +10.2 +3.0 61 +10 +10 по сезону 1032.8 1012.3 +18.6
21 13.10 штиль 0 20 км ясно +9.6 +1.6 57 +9 +9 по сезону 1032.8 1012.2
00 14.10 штиль 0 20 км ясно +7.2 +2.1 70 +7 +7 по сезону 1033.1 1012.3
03 14.10 штиль 0 20 км ясно +5.5 +2.0 78 +5 +5 по сезону 1033.3 1012.4
06 14.10 штиль 0 20 км ясно +7.9 +2.6 69 +7 +8 по сезону 1033.0 1012.3 +5.1
09 14.10 штиль 0 20 км 3/0
[Cs]
+16.2 +2.3 39 +16 +22 тепло 1032.6 1012.5
12 14.10 СВ 1 20 км 3/0
[Cs]
+18.2 +2.1 34 +19 +23 тепло 1031.2 1011.2
15 14.10 штиль 0 20 км 3/0
[Ci fib]
+15.8 +4.4 47 +16 +16 тепло 1030.2 1010.1
18 14.10 штиль 0 20 км ясно +11.4 +5.0 65 +11 +11 тепло 1030.5 1010.1 +19.7
21 14.10 штиль 0 20 км ясно +9.8 +4.9 72 +9 +9 по сезону 1030.4 1009.9
00 15.10 С 1 20 км ясно +8.5 +4.1 74 +8 +8 по сезону 1030.7 1010.1
03 15.10 С 1 20 км ясно +7.0 +4.5 84 +6 +6 по сезону 1031.0 1010.3
06 15.10 штиль 0 20 км 3/0
[Ci fib]
+8.0 +5.1 82 +7 +8 по сезону 1031.2 1010.5 +6.5
09 15.10 СВ 1 20 км 3/0
[Ci fib]
+15.9 +7.0 55 +17 +22 тепло 1030.5 1010.4
12 15.10 В 2 20 км 3/0
[Ci fib]
+18.9 +7.0 46 +20 +23 тепло 1029.4 1009.5
15 15.10 СВ 1 20 км 5/0
[Ci fib]
+16.3 +7.7 57 +17 +17 тепло 1028.7 1008.7
18 15.10 С 1 20 км ясно +12.5 +8.0 74 +13 +13 тепло 1028.8 1008.5 +20.5
21 15.10 штиль 0 20 км ясно +11.7 +8.0 78 +11 +11 тепло 1028.5 1008.2
00 16.10 штиль 0 20 км ясно +10.7 +7.6 81 +10 +10 тепло 1028.6 1008.2
03 16.10 штиль 0 20 км ясно +9.8 +7.3 84 +9 +9 тепло 1028.6 1008.1
06 16.10 штиль 0 20 км ясно +10.7 +8.0 83 +10 +11 тепло 1028.9 1008.5 +8.9
09 16.10 Ю 2 20 км ясно +17.7 +9.7 59 +18 +23 тепло 1028.1 1008.2
12 16.10 Ю 2 20 км ясно +22.6 +10.9 48 +25 +28 комфорт 1026.8 1007.3
15 16.10 штиль 0 20 км 4/0
[Cs]
+19.4 +10.3 56 +20 +20 тепло 1026.3 1006.6
18 16.10 Ю 1 20 км ясно +15.7 +10.2 70 +16 +16 тепло 1026.9 1006.9 +23.4
21 16.10 штиль 0 20 км 3/0
[Cs]
+13.6 +9.3 75 +13 +13 тепло 1027.0 1006.8
00 17.10 штиль 0 10 км ясно +11.7 +9.3 85 +11 +11 тепло 1027.0 1006.7
03 17.10 штиль 0 4000 м дымка ясно +10.6 +8.8 89 +10 +10 тепло 1027.2 1006.8
06 17.10 штиль 0 4000 м дымка ясно +12.2 +10.1 87 +12 +12 тепло 1027.5 1007.2 +10.0
09 17.10 Ю 1 20 км ясно +18.8 +11.1 61 +21 +26 комфорт 1027.1 1007.3
12 17.10 ЮЗ 2 20 км ясно +23.0 +11.4 48 +25 +29 комфорт 1025.8 1006.3
15 17.10 штиль 0 20 км ясно +19.7 +11.3 58 +21 +21 комфорт 1025.1 1005.4
18 17.10 Ю 1 20 км ясно +17.8 +10.5 62 +19 +19 тепло 1025.2 1005.4 +24.0
21 17.10 штиль 0 20 км ясно +14.9 +10.1 73 +15 +15 тепло 1025.3 1005.3
00 18.10 штиль 0 10 км ясно +12.5 +9.8 84 +12 +12 тепло 1025.3 1005.1
03 18.10 штиль 0 4000 м дымка ясно +11.0 +9.6 91 +10 +10 тепло 1024.8 1004.5
06 18.10 штиль 0 4000 м дымка ясно +12.2 +10.1 87 +12 +12 тепло 1024.5 1004.3 +10.2
09 18.10 Ю 1 20 км ясно +18.9 +11.2 61 +21 +26 комфорт 1023.5 1003.8
12 18.10 ЮЗ 2 20 км ясно +22.3 +10.9 48 +24 +27 комфорт 1021.5 1002.0
15 18.10 Ю 1 20 км ясно +19.4 +10.3 56 +22 +22 комфорт 1020.2 1000.6

 

Местоположение метеостанции Киев (город Киев, Украина): широта 50.40 долгота 30.57 высота над уровнем моря 167 м.

В архиве по умолчанию представлена погода в Киеве за последнюю неделю. Архивные данные за месяц целиком и за предыдущие месяцы, начиная с января 2011 года, Вы можете получить, выбрав интересующий диапазон дат из раскрывающегося списка и нажав кнопку "Ввод!".


*Определитесь, кто Вы:
робот инопланетянин человек

Внимание! Время в таблицах - всемирное. Для получения местного времени необходимо прибавить поправку, которая в Киеве равна 2 ч.

Смотрите также архив погоды в соседних городах и на ближайших метеорологических станциях:

Погода в Вышгороде (Киевская область, Украина) (21 км)
Погода в Борисполе (Киевская область, Украина) (29 км)
Погода в Барышевке (Киевская область, Украина) (54 км)
Погода в Фастове (Киевская область, Украина) (58 км)
Погода в Остере (Черниговская область, Украина) (65 км)
Погода в Тетереве (Киевская область, Украина) (78 км)
Погода в Белой Церкви (Киевская область, Украина) (79 км)
Погода в Мироновке (Киевская область, Украина) (87 км)
Погода в Яготине (Киевская область, Украина) (90 км)
Погода в Чернобыле (Киевская область, Украина) (101 км)

Пояснения к столбцам:

Ветер - указаны скорость ветра в м/с - средняя за 10 мин, порывы в срок и между сроками (в фигурных скобках) и направление, откуда дует ветер: С - северный, СВ - северо-восточный, В - восточный, ЮВ - юго-восточный, Ю - южный, ЮЗ - юго-западный, З - западный, СЗ - северо-западный.
Видимость - горизонтальная дальность видимости в метрах или километрах. При видимости от 1 до 10 км при отсутствии осадков обычно наблюдается дымка, при ухудшении видимости до 1 км и менее - туман. В сухую погоду видимость может ухудшаться дымом, пылью или мглою.
Явления - указаны атмосферные явления, наблюдавшиеся в срок или в последний час перед сроком; фигурными скобками обозначены явления, наблюдавшиеся между сроками (за 1-3 часа до срока); квадратными скобками обозначены град или гололедные отложения с указанием их диаметра в мм.
Облачность - указаны через наклонную черту общая и нижняя облачность в баллах и высота нижней границы облаков в метрах; квадратными скобками обозначены формы облаков: Ci - перистые, Cs - перисто-слоистые, Cc - перисто-кучевые, Ac - высококучевые, As - высокослоистые, Sc - слоисто-кучевые, Ns - слоисто-дождевые, Cu - кучевые, Cb - кучево-дождевые. Подробнее классификацию облаков см. в Атласе облаков (PDF).
T - Температура воздуха - температура, измеренная на высоте 2 м над землей.
Td - Температура точки росы - температура, при понижении до которой содержащийся в воздухе водяной пар достигнет насыщения.
f - Относительная влажность воздуха - влажноcть воздуха, измеренная на высоте 2 м над землей.
Te - Эффективная температура - температура, которую ощущает одетый по сезону человек в тени. Характеристика душности погоды. При расчете учитывается влияние влажности воздуха и скорости ветра на теплоощущения человека.
Tes - Эффективная температура на солнце - температура, которую ощущает человек, с поправкой на солнечный нагрев. Характеристика знойности погоды. Зависит от высоты солнца над горизонтом, облачности и скорости ветра. Ночью, в пасмурную погоду, а также при ветре 12 м/с и более поправка равна нулю.
P - Атмосферное давление - приведенное к уровню моря атмосферное давление.
Po - Атмосферное давление - измеренное на уровне метеостанции атмосферное давление.
Tmin - Минимальная температура - минимум температуры воздуха на высоте 2 м над землей.
Tmax - Максимальная температура - максимум температуры воздуха на высоте 2 м над землей.
R - Количество осадков - Количество выпавших осадков за период времени, мм. При наведении курсора мыши на число - период времени, за который выпало указанное количество осадков.
R24 - Количество осадков - Количество выпавших осадков за 24 часа, мм.
S - Снежный покров - Высота снежного покрова, см. При наведении курсора мыши на число - состояние снежного покрова и степень покрытия местности в баллах.